Simultaneous Nadir Overpasses (SNOs) Predictions

Prediction of SNOs between LANDSAT-8 and NOAA-19 Satellite Orbit:

Table of predicted SNOs for the next 14.0 days since TLE Epoch: 12/19/2020
Index Date (LANDSAT-8) Time (LANDSAT-8) Lat,Lon (LANDSAT-8) SZA (LANDSAT-8 ) Date (NOAA-19) Time (NOAA-19) Lat,Lon (NOAA-19) SZA (NOAA-19 ) Distance(km) Time Diff (sec)
1 12/21/2020 03:56:01 -80.13, -30.29 75.31 12/21/2020 03:55:06 -80.12, -30.24 75.33 1.18 55
2 12/21/2020 04:45:27 80.13, 137.36 104.70 12/21/2020 04:46:05 80.11, 137.29 104.68 3.41 38
3 12/23/2020 10:19:11 -80.14,-126.03 75.34 12/23/2020 10:19:19 -80.11,-126.07 75.36 2.61 8
4 12/25/2020 15:52:54 80.13, -29.48 104.59 12/25/2020 15:52:34 80.14, -29.62 104.57 2.68 20
5 12/25/2020 16:42:22 -80.11, 137.90 75.46 12/25/2020 16:43:33 -80.13, 137.78 75.43 3.35 71
6 12/27/2020 21:26:38 -80.14, 67.11 75.53 12/27/2020 21:25:47 -80.15, 66.97 75.54 3.03 51
7 12/27/2020 22:16:04 80.13,-125.29 104.47 12/27/2020 22:16:47 80.12,-125.29 104.47 1.77 43
8 12/30/2020 03:49:48 -80.14, -28.70 75.69 12/30/2020 03:49:59 -80.12, -28.56 75.68 3.12 11
9 01/01/2021 09:23:30 80.15, 68.03 104.16 01/01/2021 09:23:15 80.13, 68.04 104.13 2.38 15



Historial Predications of SNOs between LANDSAT-8 and NOAA-19
